Home   Weather   Rotenburg (Wümme)   Past weeks

Flag for Germany Past Weather in Rotenburg (Wümme), Lower Saxony, Germany — Yesterday and Last 2 Weeks

Now
46 °F

Passing clouds.


Feels Like: 43 °F
Forecast: 35 / 56 °F
Wind: 7 mph from Northeast

Location: Bremen Airport

Current Time: Apr 29, 2017 at 9:24:49 pm

Latest Report: Apr 29, 2017 at 8:50 pm


Visibility: N/A

Pressure: 30.07 "Hg

Humidity: 62%

Dew Point: 34 °F

Location of Rotenburg (Wümme)Location

Past Weather in Rotenburg (Wümme) — Graph

°F

Rotenburg (Wümme) Temperature Yesterday

Maximum temperature yesterday: 52 °F (at 1:50 pm)
Minimum temperature yesterday: 37 °F (at 1:50 am)
Average temperature yesterday: 44 °F

High & Low Weather Summary for the Past Weeks

 TemperatureHumidityPressure
High57 °F (Apr 21, 11:50 am)100% (Apr 17, 3:50 am)30.63 "Hg (Apr 17, 3:50 am)
Low27 °F (Apr 20, 6:20 am)35% (Apr 20, 5:50 pm)29.59 "Hg (Apr 25, 5:20 am)
Average43 °F74%30.09 "Hg
* Reported Apr 14 8:20 pm — Apr 29 8:20 pm, Rotenburg (Wümme), Weather by CustomWeather, © 2017

Note: Actual official high and low records may vary slightly from our data, if they occured in-between our weather recording intervals... More about our weather records

Advertising

Rotenburg (Wümme) Weather History for the Previous 24 Hours

Scroll right to see more
 ConditionsComfort  
Time TempWeatherWind HumidityBarometerVisibility
8:20 pm
Sat, Apr 29
48 °FPassing clouds.8 mph62%30.07 "HgN/A
7:50 pm50 °FPassing clouds.9 mph58%30.07 "HgN/A
7:20 pm50 °FPassing clouds.8 mph58%30.07 "HgN/A
6:50 pm52 °FPassing clouds.8 mph50%30.07 "HgN/A
6:20 pm54 °FPassing clouds.7 mph47%30.07 "HgN/A
5:50 pm52 °FPassing clouds.10 mph50%30.07 "HgN/A
5:20 pm50 °FScattered clouds.12 mph54%30.07 "HgN/A
4:50 pm52 °FScattered clouds.10 mph47%30.07 "HgN/A
4:20 pm54 °FScattered clouds.10 mph47%30.07 "HgN/A
3:50 pm52 °FScattered clouds.9 mph50%30.07 "HgN/A
3:20 pm50 °FScattered clouds.8 mph54%30.07 "HgN/A
2:50 pm50 °FBroken clouds.6 mph54%30.07 "HgN/A
2:20 pm50 °FPartly sunny.9 mph58%30.07 "HgN/A
1:50 pm48 °FPartly sunny.12 mph62%30.04 "HgN/A
1:20 pm48 °FPartly sunny.7 mph62%30.04 "HgN/A
12:50 pm48 °FPartly sunny.8 mph58%30.04 "HgN/A
12:20 pm48 °FPartly sunny.10 mph62%30.04 "HgN/A
11:50 am50 °FScattered clouds.12 mph62%30.04 "HgN/A
11:20 am48 °FScattered clouds.9 mph66%30.04 "HgN/A
10:50 am45 °FScattered clouds.9 mph76%30.04 "HgN/A
10:20 am43 °FSprinkles. Partly sunny.10 mph81%30.04 "HgN/A
9:50 am43 °FPartly sunny.10 mph81%30.04 "HgN/A
9:20 am43 °FPartly sunny.9 mph76%30.04 "HgN/A
8:50 am41 °FPartly sunny.10 mph81%30.04 "HgN/A
8:20 am41 °FPartly sunny.6 mph81%30.04 "HgN/A
7:50 am37 °FSunny.2 mph87%30.01 "Hg10 mi
7:20 am36 °FScattered clouds.3 mph93%30.01 "HgN/A
6:50 am34 °FFog.2 mph93%30.01 "HgN/A
6:20 am34 °FFog.2 mph93%30.01 "HgN/A
5:50 am34 °FFog.2 mph93%30.01 "HgN/A
5:20 am34 °FFog.2 mph93%30.01 "HgN/A
4:50 am34 °FFog.1 mph93%30.01 "HgN/A
4:20 am34 °FClear.2 mph93%30.01 "Hg10 mi
3:50 am34 °FClear.2 mph93%30.01 "Hg10 mi
3:20 am34 °FFog.3 mph93%29.98 "HgN/A
2:50 am34 °FFog.5 mph93%29.98 "HgN/A
2:20 am34 °FClear.3 mph93%29.98 "Hg10 mi
1:50 am34 °FClear.2 mph93%29.98 "Hg10 mi
1:20 am34 °FClear.5 mph100%29.98 "Hg10 mi
12:50 am36 °FFog.5 mph93%29.98 "HgN/A
12:20 am36 °FChilly.5 mph100%29.98 "Hg4 mi
11:50 pm
Fri, Apr 28
39 °FFog.3 mph93%29.98 "HgN/A
11:20 pm39 °FClear.5 mph93%29.98 "Hg10 mi
10:50 pm39 °FPassing clouds.3 mph93%29.98 "HgN/A
10:20 pm41 °FPassing clouds.3 mph87%29.95 "HgN/A
9:50 pm45 °FPassing clouds.7 mph76%29.95 "HgN/A
9:20 pm45 °FPassing clouds.7 mph81%29.95 "HgN/A
Weather by CustomWeather, © 2017

See weather overviewHow to use our weather pages